EW2785 Weather Reports


time (UTC)temp
F
wind
direction
speed
knots
gust
knots
rain 1hr
in
rain 24hr
in
rain mn
in
humidity
%
barometer
mb
20260904050012 61 207 0.0 0.0 0.00 0.00 0.00 90 1011.0
20260904044513 62 207 0.0 0.0 0.00 0.00 0.00 90 1011.0
20260904043013 62 207 0.0 0.0 0.00 0.00 0.00 90 1011.1
20260904041509 63 207 0.0 0.0 0.00 0.00 0.00 89 1011.0
20260904040004 63 207 0.0 0.0 0.00 0.00 0.00 89 1011.2
20260904034503 63 207 0.0 0.0 0.00 0.00 0.00 89 1011.1
20260904033004 64 207 0.0 0.0 0.00 0.00 0.00 89 1011.3
20260904031503 64 207 0.0 0.0 0.00 0.00 0.00 89 1011.3
20260904030002 64 207 0.0 0.0 0.00 0.00 0.00 88 1011.4
20260904024504 65 207 0.0 0.0 0.00 0.00 0.00 88 1011.4
20260904023001 65 207 0.0 0.0 0.00 0.00 0.00 88 1011.4
20260904021501 66 207 0.0 0.0 0.00 0.00 0.00 87 1011.5
20260904020109 66 207 0.0 0.0 0.00 0.00 0.00 87 1011.4
20260904014613 67 207 0.0 0.0 0.00 0.00 0.00 86 1011.4
20260904013059 68 207 0.0 0.9 0.00 0.00 0.00 86 1011.3
20260904011559 68 205 0.0 0.0 0.00 0.00 0.00 86 1011.3
20260904010100 69 205 0.0 0.0 0.00 0.00 0.00 85 1011.4
20260904004558 70 205 0.0 0.0 0.00 0.00 0.00 84 1011.2
20260904003058 71 205 0.0 0.9 0.00 0.00 0.00 83 1011.0
20260904001556 72 205 0.0 0.0 0.00 0.00 0.00 82 1010.7
20260904000114 73 205 0.0 0.9 0.00 0.00 0.00 81 1010.3
20260903234556 74 205 0.0 0.0 0.00 0.00 0.00 78 1010.2
20260903233057 75 205 0.0 0.0 0.00 0.00 0.00 77 1009.9
20260903231556 75 205 0.0 1.7 0.00 0.00 0.00 76 1010.0
20260903230055 76 207 0.9 2.6 0.00 0.00 0.00 75 1010.1
20260903224611 77 210 0.0 0.9 0.00 0.00 0.00 75 1010.2
20260903223051 77 210 0.0 5.2 0.00 0.00 0.00 74 1010.3
20260903221552 78 196 0.0 3.5 0.00 0.00 0.00 74 1010.2
20260903220050 78 223 1.7 5.2 0.00 0.00 0.00 74 1010.1
20260903214607 78 211 2.6 7.0 0.00 0.00 0.00 71 1010.2
20260903213059 79 217 1.7 5.2 0.00 0.00 0.00 71 1010.5
20260903211549 79 217 1.7 4.3 0.00 0.00 0.00 70 1010.6
20260903210121 79 219 0.0 4.3 0.00 0.00 0.00 71 1010.2
20260903204550 79 210 0.0 1.7 0.00 0.00 0.00 74 1010.1
20260903203105 80 208 0.0 5.2 0.00 0.00 0.00 71 1010.2
20260903201548 80 217 3.5 7.8 0.00 0.00 0.00 69 1010.1
20260903200052 79 330 0.0 2.6 0.00 0.00 0.00 74 1010.2
20260903194541 79 212 1.7 7.0 0.00 0.00 0.00 72 1010.4
20260903193039 78 198 0.0 5.2 0.00 0.00 0.00 75 1010.7
20260903191540 78 205 0.9 4.3 0.00 0.00 0.00 75 1010.6
20260903190035 77 221 0.0 2.6 0.00 0.00 0.00 78 1010.5
20260903184531 76 202 0.9 3.5 0.00 0.00 0.00 81 1010.7
20260903183029 75 223 0.0 2.6 0.00 0.00 0.00 81 1010.9
20260903181528 75 217 0.0 4.3 0.00 0.00 0.00 81 1011.1
20260903180026 74 215 0.0 2.6 0.00 0.00 0.00 82 1011.3
20260903174522 74 153 0.0 2.6 0.00 0.00 0.00 81 1011.5
20260903173021 74 153 0.0 2.6 0.00 0.00 0.00 82 1011.6
20260903171519 74 197 0.9 2.6 0.00 0.00 0.00 82 1011.6
20260903170017 73 147 0.0 3.5 0.00 0.00 0.00 82 1011.8
20260903164515 73 211 0.0 4.3 0.00 0.00 0.00 85 1011.8
20260903163012 72 209 0.0 3.5 0.00 0.00 0.00 84 1012.1
20260903161512 72 211 0.0 5.2 0.00 0.00 0.00 84 1012.3
20260903160012 72 219 0.0 5.2 0.00 0.00 0.00 85 1012.3
20260903154507 72 202 0.0 5.2 0.00 0.00 0.00 85 1012.4
20260903153008 71 196 0.9 2.6 0.00 0.00 0.00 86 1012.5
20260903151504 71 209 0.9 3.5 0.00 0.00 0.00 87 1012.8
20260903150105 70 201 0.9 4.3 0.00 0.00 0.00 88 1012.6
20260903144604 69 217 0.9 4.3 0.00 0.00 0.00 88 1012.8
20260903143107 68 211 0.0 0.9 0.00 0.00 0.00 89 1012.8
20260903141602 67 260 0.0 0.9 0.00 0.00 0.00 89 1013.0
20260903140049 67 260 0.0 0.9 0.00 0.00 0.00 90 1013.1
20260903134552 66 260 0.0 0.0 0.00 0.00 0.00 90 1013.1
20260903133046 65 260 0.0 0.0 0.00 0.00 0.00 90 1013.0
20260903131547 65 260 0.0 0.9 0.00 0.00 0.00 90 1013.1
20260903130044 65 260 0.0 0.0 0.00 0.00 0.00 89 1013.1
20260903124545 64 260 0.0 0.0 0.00 0.00 0.00 90 1013.1
20260903123043 64 260 0.0 0.0 0.00 0.00 0.00 90 1013.1
20260903121542 64 198 0.0 0.0 0.00 0.00 0.00 89 1013.2
20260903120044 64 198 0.0 0.0 0.00 0.00 0.00 89 1013.4
20260903114545 64 198 0.0 0.0 0.00 0.00 0.00 90 1013.3
20260903113041 63 198 0.0 0.0 0.00 0.00 0.00 90 1013.3
20260903111543 63 198 0.0 0.9 0.00 0.00 0.00 89 1013.4
20260903110046 63 198 0.0 0.0 0.00 0.00 0.00 89 1013.4
20260903104543 63 198 0.0 0.0 0.00 0.00 0.00 89 1013.4
20260903103046 63 198 0.0 0.0 0.00 0.00 0.00 89 1013.3
20260903101541 63 198 0.0 0.9 0.00 0.00 0.00 89 1013.2
20260903100038 63 198 0.0 0.0 0.00 0.00 0.00 89 1013.1
20260903094537 63 198 0.0 0.0 0.00 0.00 0.00 89 1013.1
20260903093038 63 198 0.0 0.0 0.00 0.00 0.00 89 1013.0
20260903091534 63 198 0.0 1.7 0.00 0.00 0.00 89 1013.2
20260903090034 63 134 0.0 0.0 0.00 0.00 0.00 89 1013.2
20260903084532 64 134 0.0 0.0 0.00 0.00 0.00 88 1013.3
20260903083036 63 134 0.0 0.0 0.00 0.00 0.00 88 1013.3
20260903081533 63 134 0.0 0.0 0.00 0.00 0.00 88 1013.5
20260903080029 64 134 0.0 0.0 0.00 0.00 0.00 88 1013.8
20260903074528 64 134 0.0 0.0 0.00 0.00 0.00 87 1013.7
20260903073026 64 134 0.0 0.0 0.00 0.00 0.00 87 1013.5
20260903071525 64 134 0.0 0.9 0.00 0.00 0.00 86 1013.7
20260903070023 64 134 0.0 0.0 0.00 0.00 0.00 86 1014.0
20260903064521 64 134 0.0 0.0 0.00 0.00 0.00 85 1013.8
20260903063040 65 134 0.0 0.0 0.00 0.00 0.00 84 1014.0
20260903061520 65 134 0.0 0.9 0.00 0.00 0.00 83 1013.9
20260903060016 65 134 0.0 0.9 0.00 0.00 0.00 83 1014.0
20260903054516 66 134 0.0 3.5 0.00 0.00 0.00 81 1014.2
20260903053011 66 134 0.9 2.6 0.00 0.00 0.00 80 1014.7
20260903051510 66 133 0.9 2.6 0.00 0.00 0.00 78 1014.7